sat.trackr.live / text

‹ back to catalog

STARLINK-5735

NORAD 55603 · 2023-020AL

PAYLOAD ACTIVE UNKNOWN

§ Identity

Operator
Country
US
Launch date
2023-02-12
Launch site
AFETR
Launch vehicle
Mass (kg)
RCS (m²)

Purposes: comms

External: N2YO · Heavens-Above · Gunter

§ Orbital elements

Epoch: 2026-09-20T11:47:30.820416Z

Period
94.27 min
Inclination
43.0036°
Eccentricity
0.0001196
Mean motion
15.27576134 rev/d
Perigee alt
482.2 km
Apogee alt
483.9 km
Semi-major
6,861.2 km
B*
9.0133e-6
RAAN
333.9304°
Arg perigee
280.1030°
Mean anomaly
79.9686°
Rev number
19,883

§ Raw data

STARLINK-57351 55603U 23020AL  26263.49132894 -.00000014  00000+0  90133-5 0  99912 55603  43.0036 333.9304 0001196 280.1030  79.9686 15.27576134198838

JSON: /api/v1/satellites/55603 · /tle

For live sub-satellite position, see the globe view (requires WebGL).

§ Visibility from observer

Set your observer location to see the next 7 days of passes ≥ 10°. The values pass through the URL so the page stays shareable.

No JS? Fill the form by hand. The geolocation button needs JavaScript.